Dewpoint
14 13 8 5 5 6 7 6 7 5 -2 -15 -19 -9 1 2 -1 -12 -8 -2 -3 -5 -6 -5 -3 -1 1 3 4 -1 -7 -8 -7 -7 -8 -6 1 6 8 8 9 9 9
14 13 9 8 6 7 8 8 7 1 -13 -20 -12 -5 0 -2 -10 -7 -1 -2 -4 -4 -5 -2 3 5 6 7 6 4 -0 -3 -9 -10 -8 3 -5 -7 -5 -4 -2 7 9
13 13 11 9 10 7 7 7 6 -2 -17 -14 -13 -9 -11 -9 -6 -2 -3 -4 -7 -7 -3 3 5 6 7 7 8 3 3 -1 -10 -9 -8 -4 4 7 2 -5 -6 -1 7
12 11 10 11 11 9 9 8 5 -9 -12 -12 -11 -12 -9 1 -2 -3 -4 -6 -6 -5 -1 4 6 7 8 7 7 6 4 -5 -11 -12 -12 -7 7 9 9 4 7 5 4
10 8 7 8 7 12 9 8 3 -12 -13 -12 -12 -9 -5 3 -3 -4 -5 -4 -3 -4 -1 4 6 7 6 6 6 6 5 4 -2 -12 -12 -11 -6 4 -2 6 8 6 1
9 9 10 9 10 11 9 8 0 -14 -12 -12 -9 -4 -4 -2 -4 -4 -3 -2 -1 -3 0 4 6 5 4 6 6 6 6 6 -6 -11 -12 -12 -8 0 5 6 6 4 0
13 11 7 10 9 12 10 9 -6 -14 -11 -10 -5 -3 -4 -4 -4 -3 -2 0 1 -1 -2 5 5 4 5 6 7 6 6 6 4 3 -11 -12 -8 -3 2 -1 -3 -9 -6
11 12 13 13 12 12 11 5 -11 -12 -9 -7 -3 -2 -2 -3 -3 -2 -0 1 2 2 -3 2 4 4 6 6 6 6 6 5 5 5 2 -11 -12 -12 -11 -11 -10 -9 -6
12 10 10 12 10 12 11 5 -6 -9 -8 -4 -0 -1 -2 -3 -2 -1 1 2 3 2 -0 -4 1 3 5 3 4 5 6 6 5 4 1 -8 -8 -10 -10 -9 -9 -10 -8
11 11 10 12 12 11 10 7 1 -8 -6 -1 0 0 -0 -2 -2 -0 1 3 3 3 1 -2 -3 3 4 5 4 4 4 4 2 1 -1 -8 -7 -5 -2 0 3 -1 -6
11 11 12 11 9 10 11 10 5 -4 -4 1 0 1 2 0 -1 0 2 4 4 4 3 -1 0 2 4 4 3 2 1 1 0 -2 -4 -9 -11 -7 -3 1 3 3 1
12 12 10 10 10 8 10 6 2 -1 1 2 1 2 1 -0 -0 1 3 4 5 5 4 3 2 0 -0 -0 -1 1 0 -1 -2 -4 -6 -8 -11 0 3 5 6 6 5
12 12 11 9 8 8 8 8 4 3 4 2 2 1 0 -0 1 3 4 5 4 4 3 4 4 2 2 1 -1 -1 -2 -2 -3 -6 -6 -6 -9 6 7 7 6 6 3
12 12 11 10 11 8 8 8 3 3 4 2 1 0 -0 1 2 3 4 4 3 4 4 4 3 2 2 0 -2 -4 -4 -4 -6 -6 -4 -4 -4 0 7 7 6 5 3
11 11 11 11 11 10 8 3 3 5 3 1 1 0 1 2 3 1 0 0 4 5 5 5 5 4 4 -1 -3 -8 -8 -7 -5 -6 -4 -3 -2 -4 0 6 6 5 5
11 11 11 11 10 9 6 -1 3 4 2 0 2 3 3 2 -0 -0 1 0 4 6 6 6 6 6 1 -1 -3 -6 -4 -2 -1 -4 -5 -5 -3 -3 -4 -9 3 5 5
10 10 11 11 10 9 2 4 6 5 3 2 5 4 1 0 0 0 3 6 6 6 7 7 7 5 0 -1 -1 -2 -1 -0 -0 -1 -2 -4 -5 -3 -3 -8 -2 4 5
10 10 10 10 10 4 2 5 7 6 7 6 5 6 3 4 4 3 5 7 7 7 7 7 7 5 3 3 -1 -1 -1 -1 1 0 -1 -3 -3 -4 -3 -3 -2 1 0
9 9 9 9 9 7 6 5 7 6 5 6 7 5 3 6 3 2 6 7 8 7 7 7 7 6 5 4 0 -1 -1 -2 0 1 1 -1 -3 -4 -3 -4 -3 -1 -2
8 8 8 8 9 8 6 6 7 6 1 4 6 2 1 1 1 4 6 8 8 8 8 7 7 6 6 3 1 -0 -1 -2 0 2 1 0 -2 -4 -4 -5 -5 -5 -5
7 7 8 8 7 5 6 6 3 3 3 5 4 2 1 1 0 2 2 3 8 7 8 8 7 7 5 3 1 -0 -1 -1 1 2 1 1 -1 -3 -4 -4 -5 -5 -5
6 7 7 7 7 6 6 4 4 3 3 4 3 2 2 0 -0 2 1 2 5 7 8 8 8 7 5 3 1 -0 -1 -0 1 2 1 1 -0 -2 -3 -4 -4 -4 -5
5 6 7 7 6 6 6 4 3 4 5 5 5 2 1 0 1 2 5 4 5 7 8 8 8 7 7 5 3 1 1 1 1 1 0 -1 -1 -2 -2 -3 -3 -4 -4
4 5 5 5 5 5 6 4 4 4 4 3 1 1 1 0 5 5 6 5 5 7 7 7 8 7 7 6 4 2 0 1 1 0 0 -1 -1 -1 -2 -2 -3 -3 -3
2 3 4 4 4 4 4 4 5 5 6 6 4 1 -0 2 3 1 0 4 7 7 7 8 8 7 6 6 5 5 2 2 3 2 1 1 -1 -1 -2 -2 -2 -2 -2
1 3 4 4 4 5 6 7 7 7 6 6 4 4 2 1 0 5 3 7 7 8 7 7 8 7 6 6 5 4 3 3 3 3 2 1 -0 -2 -2 -2 -2 -2 -2
Wind_Speed
25 29 30 34 32 29 30 31 21 24 25 25 27 27 26 25 25 26 27 28 28 27 28 29 29 28 29 30 30 30 27 23 22 21 21 21 21 21 21 22 23 23 22
29 32 35 32 29 26 28 31 25 24 26 29 30 30 30 29 29 30 30 29 29 29 30 31 32 31 30 29 28 28 28 25 21 21 21 23 21 20 19 18 18 22 22
30 28 31 29 24 29 30 28 25 24 29 32 32 33 32 32 33 32 31 31 31 32 33 32 31 29 26 22 20 24 27 24 20 19 20 22 23 21 20 18 17 18 21
30 27 20 35 27 26 30 27 25 27 32 33 34 34 35 35 35 33 33 32 33 32 31 30 29 28 26 22 21 22 23 22 19 18 19 20 24 21 20 21 21 20 21
30 27 28 34 37 30 34 32 27 28 30 33 35 36 35 35 35 34 33 33 31 31 30 30 29 27 21 19 18 19 21 19 19 17 18 19 19 19 18 19 19 19 18
24 19 30 29 43 45 38 33 29 29 32 35 37 36 36 35 35 34 33 31 30 30 30 31 28 23 15 15 16 17 16 16 18 21 18 17 18 18 18 18 17 16 16
13 14 10 28 38 39 40 36 32 32 32 36 38 37 36 35 34 33 32 30 29 29 29 29 28 22 18 19 18 15 12 14 15 19 19 15 16 16 16 16 15 15 15
13 16 14 21 36 39 35 33 31 33 34 36 36 37 36 35 33 32 30 28 27 27 26 26 26 23 23 21 17 12 11 11 13 15 17 14 13 14 13 13 14 14 15
17 8 20 25 21 25 37 28 32 33 34 36 36 36 35 34 32 31 28 27 25 24 24 23 23 22 23 19 14 10 9 9 10 14 15 13 12 13 12 13 13 13 13
14 11 19 20 29 31 26 33 27 28 31 33 33 33 34 33 32 30 27 25 23 22 21 20 21 22 20 13 11 9 10 8 9 11 14 14 12 13 13 12 13 13 12
17 18 19 19 21 24 22 26 31 26 30 32 33 33 33 32 31 29 26 23 21 21 19 20 20 21 19 12 7 6 6 6 7 10 11 11 10 9 9 10 9 10 11
21 22 25 20 27 21 30 36 34 30 32 32 33 33 32 32 31 28 26 23 20 18 18 18 17 16 15 11 7 5 3 5 7 9 10 10 7 5 8 9 10 9 9
20 25 20 16 23 26 32 29 33 35 35 34 32 33 31 31 30 28 26 22 19 16 16 14 10 11 10 7 4 6 2 3 4 5 6 7 5 6 8 6 7 7 6
23 24 18 14 26 36 28 34 37 38 37 36 34 33 32 31 28 26 23 19 15 14 14 11 9 8 6 4 4 5 4 1 2 3 4 6 7 3 6 6 3 2 2
22 26 24 24 35 34 38 42 41 39 37 35 33 32 30 29 27 23 19 17 14 13 12 11 9 5 4 3 5 5 4 2 2 4 3 4 6 5 2 3 3 4 4
26 27 30 30 35 39 44 44 38 39 36 34 34 31 27 28 23 18 17 13 13 15 13 9 5 5 9 6 3 7 4 1 4 4 5 6 5 3 5 6 7 7 8
20 35 32 32 39 41 42 41 39 40 39 38 33 28 26 23 20 17 13 11 14 14 10 8 7 10 11 7 4 5 3 2 6 7 7 7 9 8 6 7 10 11 11
21 23 30 38 35 42 44 44 45 43 41 40 35 29 26 22 18 14 11 13 13 12 10 12 13 11 10 9 9 7 6 5 6 8 7 7 8 9 9 7 9 13 14
17 20 26 39 42 42 47 47 46 43 45 40 37 34 28 20 17 13 11 14 15 16 15 16 17 15 13 14 12 11 10 6 7 10 10 8 8 9 12 12 11 12 14
16 17 21 26 37 43 44 43 44 41 44 43 38 38 35 26 18 16 15 16 18 19 20 19 19 18 20 15 14 14 13 11 11 12 13 12 12 12 11 11 12 13 14
15 17 26 32 40 41 41 42 44 44 44 42 40 37 33 25 21 19 21 18 20 22 23 23 22 23 21 20 20 18 17 16 16 15 15 16 16 16 15 13 13 14 15
19 21 29 34 36 38 41 44 45 48 44 39 44 43 39 29 26 22 24 25 24 25 27 27 26 24 23 24 24 21 19 21 20 18 18 20 19 19 19 18 17 18 17
24 28 30 32 33 37 37 36 40 36 35 42 46 45 38 36 28 25 27 26 25 25 29 30 26 27 26 26 28 23 9 13 14 19 19 20 23 22 23 21 21 20 21
26 27 29 33 34 35 38 37 41 39 39 42 45 44 38 31 26 25 27 26 27 29 32 29 28 28 26 27 27 28 27 19 11 9 18 20 24 25 25 23 25 24 24
29 32 33 35 39 38 38 38 37 37 34 34 37 41 36 31 31 30 32 28 30 32 30 29 28 30 29 29 30 30 25 22 22 22 19 20 20 22 23 25 26 28 28
34 37 37 40 42 41 39 37 39 40 38 37 37 36 35 34 34 32 31 31 31 30 28 27 25 28 30 31 31 26 29 29 26 28 28 29 24 21 21 20 22 27 28
Wind_Direction
159 171 170 163 167 165 157 158 167 152 143 143 141 141 142 139 131 128 126 122 118 116 114 112 111 109 105 101 96 94 91 89 92 91 89 91 96 93 92 94 90 85 83
160 169 169 164 174 171 162 163 173 151 142 138 139 138 138 135 134 131 125 121 119 117 115 114 110 107 103 101 98 97 90 87 87 90 90 88 87 89 89 88 89 90 86
161 168 175 180 185 178 169 168 168 150 143 142 140 141 138 135 132 128 126 123 120 116 115 114 110 106 101 96 96 91 78 71 76 83 88 86 82 78 82 82 83 86 89
163 164 190 174 190 191 174 177 167 154 147 140 141 139 136 133 131 128 126 122 119 117 118 116 112 107 102 100 100 87 74 69 70 79 83 86 88 84 81 82 84 82 81
193 201 192 192 203 201 177 176 166 155 146 144 141 139 136 133 131 129 126 122 118 117 120 120 114 110 105 110 99 87 80 70 63 74 81 82 86 84 83 86 83 81 81
196 204 206 228 191 185 183 173 165 155 150 145 142 139 137 133 132 130 127 121 118 118 123 123 120 110 110 118 106 96 85 67 66 64 67 74 80 85 88 91 89 85 79
180 197 243 221 206 191 181 172 161 153 152 147 143 141 138 135 134 132 127 121 119 119 125 129 125 112 100 112 126 107 94 75 58 51 55 66 75 79 81 78 77 66 70
196 171 185 177 187 181 178 158 156 150 153 148 145 144 141 138 135 132 127 121 119 120 123 131 128 114 96 108 123 124 95 72 55 47 46 54 66 71 72 72 69 68 70
190 204 182 194 209 165 162 140 150 150 152 149 149 147 143 140 136 133 129 122 120 119 119 125 136 131 115 100 108 101 95 71 47 41 36 45 62 72 76 78 77 77 77
213 208 178 176 168 168 168 148 140 146 154 153 149 147 146 140 136 136 131 123 118 117 117 116 129 140 141 140 133 109 94 76 46 34 31 34 45 55 69 72 86 84 81
202 181 174 131 149 183 151 157 144 161 159 154 150 150 148 141 139 137 132 125 121 118 116 118 129 137 142 143 128 113 103 66 38 33 30 29 36 49 72 92 95 92 87
192 170 144 146 156 158 165 147 147 161 162 155 153 152 148 144 142 141 135 130 124 120 130 128 132 136 129 129 141 151 115 64 43 32 29 27 16 56 101 106 122 110 103
199 194 184 175 178 161 156 164 152 165 160 156 156 153 150 147 145 144 139 134 133 126 142 149 151 138 121 110 128 170 147 88 61 43 29 18 19 126 137 128 126 117 61
179 187 196 197 185 170 163 167 162 166 161 158 159 156 153 149 147 148 143 143 139 146 161 158 154 157 140 123 173 191 184 131 76 16 0 24 27 62 155 161 124 41 360
203 201 212 188 180 181 165 159 165 167 163 160 160 157 155 151 151 151 154 154 158 170 177 176 168 170 175 189 153 164 178 144 359 308 348 39 26 359 276 224 307 304 259
206 213 201 188 180 169 167 167 168 168 165 166 161 154 152 158 161 163 159 162 177 187 188 184 183 224 200 196 167 158 164 33 336 331 336 333 324 326 287 266 266 270 254
197 183 192 193 177 172 172 173 168 170 166 167 161 154 155 163 168 160 158 169 179 190 195 195 213 221 208 203 216 194 194 293 336 347 345 313 294 294 264 235 239 253 261
215 212 186 181 179 176 175 174 170 169 166 160 158 161 163 164 167 166 172 190 195 203 211 214 223 226 226 237 235 231 249 272 322 328 333 313 300 289 274 244 237 247 258
208 208 188 179 182 181 177 174 174 173 169 164 164 169 170 167 180 189 198 207 213 211 217 224 229 241 245 249 244 252 260 271 298 309 310 297 298 294 275 274 261 259 261
198 199 203 176 167 175 179 178 180 178 178 185 174 185 173 184 197 198 210 221 219 221 228 225 228 237 248 247 254 254 258 264 275 288 295 294 290 280 265 272 271 278 274
187 182 191 187 187 185 185 183 188 186 189 182 191 192 195 204 207 216 226 239 228 223 228 234 237 241 237 233 240 247 250 253 265 270 276 282 281 282 276 280 283 279 279
189 179 187 191 188 187 191 192 195 193 200 211 210 216 200 212 218 226 232 232 235 230 230 237 242 237 233 235 234 241 245 254 261 261 258 260 267 269 276 280 281 283 287
189 187 192 190 189 190 193 198 199 197 205 213 205 199 207 216 225 232 239 229 233 234 231 237 245 242 237 239 241 236 230 236 247 244 242 249 252 256 260 269 276 282 285
190 187 190 192 192 194 200 198 196 198 195 199 202 207 213 221 237 241 240 236 233 241 238 242 245 244 243 237 240 245 241 247 248 255 257 252 248 250 250 263 273 278 280
187 186 183 184 182 181 188 188 190 199 204 210 212 213 221 227 232 250 248 248 242 243 238 240 237 237 246 248 248 251 242 248 254 260 269 270 256 251 254 260 266 271 274
192 188 183 184 186 188 193 200 204 207 207 212 215 224 230 236 240 242 238 241 241 244 246 248 243 244 249 250 243 237 243 242 260 268 261 268 265 262 263 266 259 261 265
Height
1504 1508 1514 1513 1520 1523 1519 1524 1534 1525 1519 1521 1521 1526 1530 1533 1537 1540 1543 1545 1547 1549 1551 1553 1553 1554 1554 1555 1556 1556 1557 1556 1555 1557 1557 1558 1559 1559 1560 1559 1560 1560 1560
1504 1509 1510 1512 1520 1526 1521 1525 1533 1525 1520 1519 1524 1526 1532 1534 1538 1541 1544 1548 1550 1551 1553 1555 1556 1557 1557 1557 1558 1558 1558 1559 1558 1559 1561 1561 1561 1561 1562 1561 1562 1562 1562
1502 1508 1512 1511 1520 1524 1524 1526 1530 1523 1520 1522 1523 1527 1531 1535 1540 1543 1546 1549 1552 1555 1556 1557 1558 1560 1560 1560 1561 1560 1560 1562 1561 1562 1563 1563 1563 1565 1564 1563 1563 1563 1563
1501 1506 1507 1510 1521 1526 1523 1525 1529 1525 1522 1520 1526 1528 1531 1535 1539 1545 1548 1552 1554 1555 1558 1560 1562 1562 1563 1562 1565 1565 1562 1564 1565 1566 1565 1564 1565 1568 1568 1566 1566 1565 1565
1499 1502 1508 1503 1506 1513 1520 1525 1528 1526 1522 1524 1525 1529 1532 1537 1541 1546 1550 1553 1555 1557 1560 1562 1566 1567 1567 1564 1567 1568 1567 1568 1568 1568 1568 1567 1567 1569 1569 1569 1568 1567 1566
1496 1496 1499 1504 1507 1504 1516 1521 1523 1525 1524 1525 1526 1531 1534 1538 1543 1548 1552 1554 1557 1559 1563 1563 1568 1570 1569 1568 1569 1570 1572 1571 1572 1570 1570 1571 1570 1571 1572 1570 1570 1569 1568
1496 1493 1491 1499 1509 1507 1509 1516 1520 1520 1527 1527 1528 1534 1536 1540 1545 1551 1554 1557 1559 1562 1565 1568 1570 1571 1570 1572 1572 1573 1575 1574 1575 1574 1573 1574 1573 1572 1573 1572 1571 1571 1571
1493 1496 1494 1495 1497 1505 1507 1509 1519 1518 1528 1529 1533 1536 1538 1542 1547 1554 1557 1559 1562 1565 1568 1570 1572 1575 1573 1574 1574 1575 1575 1577 1577 1577 1576 1576 1576 1575 1574 1574 1574 1574 1574
1492 1495 1495 1501 1507 1508 1498 1507 1520 1523 1529 1531 1536 1538 1540 1544 1549 1555 1559 1561 1564 1568 1571 1573 1575 1576 1577 1576 1576 1577 1578 1579 1580 1579 1578 1578 1577 1577 1577 1576 1577 1577 1577
1494 1497 1497 1501 1503 1505 1509 1512 1520 1523 1530 1534 1538 1542 1545 1547 1550 1558 1561 1564 1566 1570 1572 1578 1577 1577 1578 1577 1579 1579 1580 1580 1581 1581 1580 1579 1579 1578 1579 1579 1579 1579 1580
1492 1496 1496 1496 1498 1507 1513 1519 1522 1531 1533 1538 1540 1544 1548 1548 1553 1559 1563 1566 1569 1571 1576 1577 1579 1579 1581 1580 1581 1581 1583 1583 1583 1581 1580 1582 1581 1580 1580 1580 1581 1582 1580
1492 1493 1498 1502 1503 1507 1513 1518 1525 1531 1536 1537 1541 1545 1547 1550 1554 1561 1564 1567 1570 1572 1576 1579 1580 1581 1583 1583 1582 1583 1584 1584 1583 1583 1583 1583 1583 1582 1582 1582 1583 1583 1582
1493 1493 1497 1501 1506 1508 1511 1519 1521 1530 1534 1536 1543 1546 1548 1551 1556 1562 1564 1568 1570 1572 1578 1580 1581 1583 1584 1585 1584 1584 1585 1585 1584 1583 1585 1584 1583 1583 1584 1585 1585 1583 1583
1489 1492 1495 1499 1505 1509 1510 1515 1521 1527 1531 1537 1543 1545 1549 1553 1558 1562 1564 1568 1570 1573 1578 1580 1581 1583 1584 1585 1585 1585 1585 1585 1585 1584 1586 1586 1584 1584 1586 1587 1585 1583 1584
1493 1494 1497 1500 1502 1509 1510 1516 1521 1526 1529 1535 1542 1545 1549 1553 1559 1562 1564 1567 1570 1573 1577 1580 1581 1583 1584 1586 1586 1585 1585 1586 1585 1586 1585 1585 1585 1585 1586 1588 1587 1586 1585
1490 1495 1495 1499 1502 1506 1511 1515 1519 1525 1529 1535 1541 1546 1549 1555 1559 1561 1564 1567 1570 1574 1577 1578 1580 1582 1583 1585 1586 1585 1585 1585 1586 1585 1585 1584 1585 1585 1587 1587 1587 1587 1586
1490 1489 1493 1497 1501 1505 1511 1515 1519 1524 1528 1535 1542 1544 1550 1556 1558 1559 1562 1566 1570 1573 1576 1577 1579 1581 1582 1583 1585 1585 1585 1586 1584 1583 1584 1583 1584 1585 1585 1585 1585 1586 1586
1492 1495 1492 1493 1499 1505 1509 1515 1518 1524 1528 1531 1536 1544 1551 1555 1556 1557 1561 1566 1569 1571 1573 1576 1578 1579 1580 1581 1583 1583 1583 1584 1584 1582 1583 1582 1582 1583 1583 1583 1582 1583 1583
1491 1492 1492 1493 1497 1503 1507 1512 1517 1521 1524 1531 1537 1544 1548 1550 1554 1556 1560 1564 1567 1569 1570 1574 1576 1577 1578 1578 1580 1581 1582 1581 1580 1580 1580 1581 1580 1580 1581 1581 1580 1579 1581
1490 1492 1494 1498 1499 1505 1510 1514 1518 1522 1525 1533 1537 1542 1544 1547 1552 1556 1559 1562 1564 1566 1569 1570 1573 1575 1576 1577 1578 1578 1580 1579 1578 1577 1576 1576 1577 1577 1578 1579 1578 1577 1578
1489 1491 1494 1498 1502 1506 1511 1514 1521 1523 1527 1532 1537 1540 1543 1548 1550 1553 1556 1559 1561 1563 1565 1569 1571 1571 1573 1574 1576 1576 1577 1576 1575 1576 1574 1573 1573 1573 1573 1574 1575 1574 1575
1490 1493 1497 1499 1501 1505 1509 1514 1520 1524 1527 1531 1535 1537 1541 1545 1548 1549 1551 1553 1557 1559 1563 1565 1566 1567 1569 1571 1572 1572 1573 1573 1571 1571 1571 1571 1570 1570 1568 1570 1570 1569 1569
1490 1492 1496 1498 1501 1504 1509 1514 1519 1524 1527 1528 1528 1532 1536 1541 1544 1546 1546 1549 1551 1554 1556 1559 1561 1563 1564 1566 1567 1569 1568 1567 1567 1567 1566 1566 1565 1564 1565 1567 1566 1565 1565
1487 1491 1494 1497 1499 1503 1509 1512 1514 1516 1517 1520 1526 1530 1535 1539 1541 1544 1545 1546 1547 1550 1552 1553 1556 1558 1561 1561 1562 1563 1563 1563 1564 1564 1562 1562 1562 1560 1561 1561 1561 1560 1560
1487 1490 1493 1496 1499 1503 1506 1509 1513 1516 1519 1523 1527 1529 1532 1534 1536 1539 1541 1543 1544 1546 1547 1549 1550 1552 1554 1556 1557 1557 1558 1560 1560 1559 1557 1559 1557 1557 1558 1558 1558 1557 1556
1483 1486 1490 1494 1497 1502 1506 1509 1511 1512 1516 1520 1522 1524 1527 1529 1531 1533 1535 1538 1540 1541 1542 1544 1546 1547 1547 1549 1550 1549 1551 1552 1554 1554 1553 1553 1553 1553 1553 1552 1551 1551 1550